Regional Weather Roundup
Issued by NWS

Home | Current Version | Previous Version | Text Only | Print | Product List | Glossary Off
Versions: 1 2 3 4 5 6 7 8 9 10 11 12 13 14 15 16 17 18 19 20 21 22 23 24 25 26 27 28 29 30 31 32 33 34 35 36 37 38 39 40 41 42 43 44 45 46 47 48 49 50

000
ASUS43 KMKX 260120
RWRWI

WISCONSIN REGIONAL WEATHER ROUNDUP
NATIONAL WEATHER SERVICE MILWAUKEE/SULLIVAN WI
700 PM CST SUN JAN 25 2015

NOTE: "FAIR" INDICATES FEW OR NO CLOUDS BELOW 12,000 FEET WITH NO
SIGNIFICANT WEATHER AND/OR OBSTRUCTIONS TO VISIBILITY.

WIZ001-002-006>008-014>016-023>028-260200-
NORTHWEST WISCONSIN

CITY           SKY/WX    TMP DP  RH WIND       PRES   REMARKS
SUPERIOR ARPT  MOCLDY    18  13  82 CALM      30.06F
ASHLAND        CLOUDY    13   8  81 CALM      30.08R
HAYWARD        PTCLDY    13   5  70 CALM      30.04R
SIREN          PTCLDY    23  12  64 NE3       30.06R
CUMBERLAND     CLOUDY    18   9  68 CALM      30.03S
RICE LAKE      CLOUDY    19  11  73 CALM      30.06S
CHETEK         CLOUDY    18  11  73 CALM      30.05S
LADYSMITH      CLOUDY    15   9  76 CALM      30.05R
EAU CLAIRE     CLOUDY    20  10  65 CALM      30.06R
MENOMONIE      CLEAR     21  12  68 CALM      30.06R
NEW RICHMOND   PTCLDY    17  11  77 CALM      30.06S
OSCEOLA        CLEAR     20  13  72 SE3       30.08F
$$

WIZ003>005-009-010-017-018-260200-
NORTH CENTRAL WISCONSIN

CITY           SKY/WX    TMP DP  RH WIND       PRES   REMARKS
MANITOWISH WTR CLOUDY     8   2  78 CALM      30.02R
ARBOR VITAE    MOCLDY    14   7  73 CALM      30.02R
WOODRUFF       MOCLDY    14   7  73 CALM      30.02R
RHINELANDER    CLOUDY    14   5  67 CALM      30.00R
EAGLE RIVER    MOCLDY    14   4  66 CALM      30.00R
LAND O LAKES   MOCLDY    11   6  81 CALM      30.02R
PHILLIPS       CLOUDY    12   6  75 CALM      30.02R
TOMAHAWK       CLOUDY    15   7  72 CALM      30.02R
MEDFORD        CLOUDY    16   8  70 CALM      30.01S
MERRILL        CLOUDY    18   8  64 CALM      30.03R
$$

WIZ029-030-035-036-043>047-260200-
CENTRAL WISCONSIN

CITY           SKY/WX    TMP DP  RH WIND       PRES   REMARKS
WAUSAU         CLOUDY    18   6  59 CALM      30.02R
MOSINEE        CLOUDY    18   7  62 N3        30.04
MARSHFIELD     CLOUDY    20   9  62 CALM      30.03R
STEVENS POINT  CLOUDY    11   4  73 CALM      30.04R
WAUPACA        PTCLDY    17   8  67 CALM      30.06S
WAUTOMA        PTCLDY    13   8  80 CALM      30.07R
WISC RAPIDS    CLOUDY    18   6  59 SE5       30.05R WCI  11
CAMP DOUGLAS   CLOUDY    20  11  68 E6        30.04S WCI  12
$$

WIZ011>013-019>022-031-037>040-048>050-260200-
NORTHEAST WISCONSIN

CITY           SKY/WX    TMP DP  RH WIND       PRES   REMARKS
ANTIGO         CLOUDY    13   5  69 CALM      30.02R
SHAWANO        CLOUDY    19  10  67 SE7       30.06S WCI   9
OCONTO         CLEAR     11   7  83 MISG      30.08S
STURGEON BAY   CLEAR     12   3  67 NE3       30.08S
GREEN BAY      PTCLDY    15   8  73 CALM      30.08R
MANITOWOC      MOCLDY    17  12  80 N10       30.07R WCI   5
APPLETON       PTCLDY    18   7  62 E7        30.06R WCI   8
CLINTONVILLE   CLOUDY    16   9  73 CALM      30.06S
OSHKOSH        CLEAR     17   8  67 NE10      30.07R WCI   5
$$

WIZ032>034-041-042-053>061-260200-
SOUTHWEST WISCONSIN

CITY           SKY/WX    TMP DP  RH WIND       PRES   REMARKS
LA CROSSE      MOCLDY    25  14  63 CALM      30.07R
SPARTA         CLOUDY    22  12  65 CALM      30.07R
VIROQUA        CLOUDY    19  13  74 CALM      30.02R
BOSCOBEL       CLEAR     21  12  68 CALM      30.06R
PRAIRIE DU CHI CLEAR     22  12  64 NE6       30.06R WCI  15
PLATTEVILLE    CLEAR     17  12  82 N6        30.02R WCI   8
$$

WIZ056-057-062-063-064-067-068-260200-
SOUTH CENTRAL WISCONSIN

CITY           SKY/WX    TMP DP  RH WIND       PRES   REMARKS
REEDSBURG      CLOUDY    20  10  66 NE5       30.04R WCI  14
BARABOO/DELLS  CLOUDY    18  10  72 NE5       30.04R WCI  11
LONE ROCK      MOCLDY    16  10  77 CALM      30.06R
MINERAL POINT  PTCLDY    19  12  73 NE5       30.01R WCI  13
MADISON        PTCLDY    18  11  74 NE9       30.04R WCI   7
MIDDLETON      CLEAR     20  13  72 NE6       30.03F WCI  12
WATERTOWN      CLEAR     17  13  82 N8        30.04R WCI   7
MONROE         CLEAR     19  14  79 N14G20    30.00S WCI   6
JANESVILLE     CLEAR     21  10  63 NE7       30.02R WCI  13
$$

WIZ051-052-058>065-066-070>072-260200-
SOUTHEAST WISCONSIN

CITY           SKY/WX    TMP DP  RH WIND       PRES   REMARKS
MILWAUKEE      MOCLDY    25  13  60 NE15G24   30.01R WCI  13
WAUKESHA       CLEAR     18  10  73 NE12      30.02R WCI   5
MILWAUKEE/TIMM PTCLDY    21  12  68 N8        30.03R WCI  12
RACINE         PTCLDY    25  14  63 NE14      30.01R WCI  13
BURLINGTON     CLEAR     18  11  74 N6        30.00R WCI  10
KENOSHA        CLEAR     23  15  71 N9        29.99R WCI  13
FOND DU LAC    CLEAR     17   9  70 N10       30.06R WCI   5
SHEBOYGAN      MOCLDY    19  11  70 N9        30.04R WCI   8
WEST BEND      CLEAR     19  12  73 N7        30.03R WCI  10
JUNEAU         CLEAR     16  10  80 N12       30.05R WCI   2
$$

LSZ147-162-260200-
LAKE SUPERIOR

STATION/POSITION TIME  TEMP    WIND        PRES    WAVE
                       AIR SEA DIR/SP/G            HT/PER
                 (UTC) (F)     (DEG/KT/KT) (MB)    (FT/S)
DEVILS ISLAND    0100   20     180/  3/  3 1019.4F
PORT WING        0040   19     130/  2/  4 1018.6F
SAXON HARBOR     0000   16      CALM  /  2 1018.3R
$$

LMZ867-665-643>646-260200-
LAKE MICHIGAN

STATION/POSITION TIME  TEMP    WIND        PRES    WAVE
                       AIR SEA DIR/SP/G            HT/PER
                 (UTC) (F)     (DEG/KT/KT) (MB)    (FT/S)
NORTHPORT PIER   0111   19      50/  6/  8 1018.6S
SISTER BAY       0013   10        CALM       N/A
KEWAUNEE LAKESHO 0000   17     340/  7/ 10 1017.2R
SHEBOYGAN LAKESH 0100   24      30/ 20/ 24 1018.6R
PORT WASHINGTON  0000   24      20/ 11/ 19 1017.6R
MILWAUKEE LAKESH 0100   27      30/ 18/ 23   N/A
KENOSHA   LAKESH 0100   27      30/ 18/ 23 1015.6R
$$

TC  - TEMPERATURE IN CELSIUS
VSB - VISIBILITY IN STATUTE MILES
WCI - WIND CHILL INDEX
HX  - HEAT INDEX




USA.gov is the U.S. government's official web portal to all federal, state and local government web resources and services.